Location: De Har
(53.3413°N, 6.6858°E)
Time: 19:30:20
(UTC+00:00)

Okean 1 - Pass Details

Date: 22 April 2026
Orbit: 460 x 474 km, 82.5° (Epoch: 21 May)

Event Time Altitude Azimuth Distance (km) Brightness Sun altitude
Exits shadow 01:37:53 27° 287° (WNW) 935 4.3 -19.2°
Maximum altitude 01:37:59 27° 291° (WNW) 934 4.3 -19.2°
Drops below altitude 10° 01:41:03 10° 350° (N) 1,628 6.4 -18.9°
Sets 01:43:23 0° 4° (N) 2,512 7.7 -18.7°
